Location: Doln� Paseka
(49.6373°N, 15.2635°E)
Time: 00:39:22
(UTC+00:00)

Daily predictions for brighter satellites

Satellite Brightness Start Highest point End
(mag) Time Altitude Azimuth Time Altitude Azimuth Time Altitude Azimuth
STARLINK-1212 2.9 00:00:11 10° WNW 00:03:18 80° NNE 00:06:24 10° ESE
STARLINK-1105 2.8 00:00:40 10° WNW 00:03:46 80° NNE 00:06:52 10° ESE
STARLINK-1209 2.7 00:00:54 10° WNW 00:04:03 81° SSW 00:06:55 12° ESE
STARLINK-1247 2.9 00:01:34 10° WNW 00:04:42 81° NNE 00:07:49 10° ESE
STARLINK-1208 4.1 00:01:01 10° WNW 00:05:08 61° NNE 00:09:15 10° E
STARLINK-1227 2.8 00:02:02 10° WNW 00:05:09 81° NNE 00:08:15 10° ESE
ATLAS CENTAUR R/B 2.1 00:03:02 10° NW 00:05:18 50° NNE 00:09:38 10° ESE
STARLINK-1226 2.8 00:02:53 10° WNW 00:06:01 82° NNE 00:09:07 10° ESE
STARLINK-1215 2.8 00:03:49 10° WNW 00:06:57 83° NNE 00:10:05 10° ESE
STARLINK-1225 4.4 00:03:05 10° W 00:07:09 53° N 00:11:14 10° ENE
Nadezhda 2 Rocket 4.5 00:04:33 28° SSW 00:07:55 76° W 00:14:04 10° N
STARLINK-1217 2.8 00:05:35 10° WNW 00:08:43 85° NNE 00:11:50 10° ESE
STARLINK-1229 2.8 00:06:31 10° WNW 00:09:39 86° NNE 00:12:46 10° ESE
GEOS 3 Rocket 3.9 00:07:39 28° S 00:10:05 48° SW 00:15:12 10° NW
STARLINK-1271 4.1 00:06:01 10° WNW 00:10:09 63° NNE 00:14:16 10° E
Cosmos 1726 4.2 00:08:17 10° NW 00:10:23 15° W 00:10:54 14° W
STARLINK-1270 2.8 00:07:22 10° WNW 00:10:31 87° NNE 00:13:39 10° ESE
Cosmos 2058 Rocket 3.1 00:07:32 10° NNW 00:11:56 67° W 00:13:46 34° SSW
STARLINK-1230 4.4 00:08:04 10° W 00:12:08 52° N 00:16:13 10° ENE
STARLINK-1189 2.8 00:09:13 10° WNW 00:12:21 89° NE 00:15:29 10° ESE
Meteor 1-29 3.3 00:09:20 10° N 00:12:39 52° WNW 00:13:32 39° WSW
STARLINK-1188 2.7 00:10:06 10° WNW 00:13:14 89° ENE 00:16:21 10° ESE
STARLINK-1235 2.6 00:10:48 10° WNW 00:13:54 76° SSW 00:16:59 10° ESE
STARLINK-1187 2.7 00:11:13 10° WNW 00:14:19 83° SSW 00:17:25 10° ESE
Cosmos 2228 3.9 00:10:29 10° NNW 00:14:20 33° W 00:15:32 28° SW
STARLINK-1154 4.0 00:11:01 10° WNW 00:15:08 65° NNE 00:19:16 10° E
COSMOS 2455 2.8 00:11:40 27° SSW 00:15:09 89° SE 00:21:14 10° NE
STARLINK-1191 2.7 00:12:35 10° WNW 00:15:41 88° SSW 00:18:48 10° ESE
SJ 16-02 3.1 00:11:57 10° N 00:15:57 32° ENE 00:19:56 10° ESE
STARLINK-1221 2.7 00:13:26 10° WNW 00:16:33 87° SSW 00:19:40 10° ESE
STARLINK-1243 4.4 00:13:04 10° W 00:17:08 52° N 00:21:13 10° ENE
STARLINK-1222 2.7 00:14:20 10° WNW 00:17:27 86° SSW 00:20:34 10° ESE
Starlink 7 placeholder 4.2 00:19:27 18° E 00:19:27 18° E 00:20:09 10° ENE
STARLINK-1214 2.7 00:15:15 10° WNW 00:18:22 85° SSW 00:21:27 10° ESE
SL-14 R/B 3.1 00:18:39 38° SSW 00:20:04 80° W 00:23:57 10° N
STARLINK-1197 3.9 00:15:59 10° WNW 00:20:07 68° NNE 00:24:16 10° E
IRAS Rocket 4.4 00:17:53 27° S 00:20:51 56° WSW 00:26:20 10° NNW
STARLINK-1236 4.4 00:18:04 10° WNW 00:22:09 52° N 00:26:13 10° ENE
Cosmos 1300 2.7 00:19:55 10° NNW 00:23:43 64° W 00:25:04 36° SSW
Okean 1-7 Rocket 3.7 00:22:03 31° SSW 00:24:03 65° WNW 00:28:33 10° N
Cosmos 1174 3.4 00:23:33 40° SW 00:24:36 74° NW 00:28:21 10° NE
STARLINK-1198 3.9 00:20:56 10° WNW 00:25:05 70° NNE 00:29:14 10° ESE
Cosmos 921 Rocket 3.1 00:23:34 31° S 00:25:29 66° ESE 00:29:47 10° NNE
BREEZE M DEB (TANK) 1.7 00:26:49 61° SSW 00:26:56 63° SSW 00:30:20 10° ESE
COSMOS 2487 4.1 00:24:53 10° NW 00:27:18 19° W 00:27:18 19° W
STARLINK-1199 3.8 00:25:58 10° WNW 00:30:07 73° NNE 00:34:16 10° ESE
Meteor 2-16 Rocket 4.4 00:27:43 24° SSW 00:31:35 85° W 00:37:46 10° N
Cosmos 1626 Rocket 3.7 00:29:36 27° S 00:31:54 69° E 00:36:13 10° NNE
SAR-Lupe-3 4.5 00:28:26 10° NNE 00:32:00 80° WNW 00:33:22 36° SSW
STARLINK-1269 4.4 00:28:03 10° WNW 00:32:07 52° N 00:36:12 10° E
Cosmos 2219 3.4 00:27:10 10° NNW 00:32:53 74° ENE 00:38:31 10° SE
STARLINK-1210 3.8 00:30:55 10° WNW 00:35:05 76° NNE 00:39:14 10° ESE
Cosmos 1626 2.6 00:34:31 31° SW 00:35:53 49° WNW 00:39:32 10° N
STARLINK-1200 4.4 00:33:04 10° WNW 00:37:09 52° N 00:41:13 10° E
STARLINK-60 2.8 00:36:27 41° SW 00:37:24 70° SSE 00:40:36 10° ENE
STARLINK-1219 3.7 00:35:54 10° WNW 00:40:04 79° NNE 00:44:13 10° ESE
Nadezhda 1 Rocket 4.0 00:35:03 10° NNW 00:41:12 75° W 00:45:52 19° S
STARLINK-1192 4.4 00:38:04 10° WNW 00:42:09 53° N 00:46:13 10° E
FALCON 9 R/B 4.0 00:38:25 21° SW 00:42:59 36° SSE 01:02:21 10° ESE
STARLINK-1211 3.7 00:40:52 10° WNW 00:45:02 82° NNE 00:49:12 10° ESE
MOZ.5/SAFIR/RUBIN 5/SL-8 3.9 00:44:16 24° S 00:46:54 56° W 00:51:29 10° NNW
STARLINK-1244 4.4 00:43:03 10° WNW 00:47:08 53° N 00:51:12 10° E
UNK 3.7 00:44:00 20° S 00:47:08 74° WSW 00:51:46 10° NNW
Cosmos 2297 Rocket 2.3 00:42:51 10° NNW 00:48:33 79° ENE 00:54:12 10° SSE
Cosmos 220 Rocket 4.0 00:46:16 26° SSW 00:48:42 81° ESE 00:53:11 10° NNE
AQUA 4.3 00:45:07 10° NNE 00:49:50 56° E 00:53:18 18° S
STARLINK-1245 3.6 00:45:52 10° WNW 00:50:02 86° NNE 00:54:12 10° ESE
Cosmos 1812 Rocket 3.5 00:46:40 10° N 00:51:11 87° W 00:54:30 18° S
CZ-4B R/B 3.8 00:46:15 10° NNE 00:51:21 63° ESE 00:55:16 18° S
STARLINK-1138 4.4 00:48:03 10° WNW 00:52:08 54° N 00:56:12 10° E
SL-4 R/B 2.3 00:49:13 20° WSW 00:52:33 74° SSE 00:57:15 10° ENE
Cosmos 1437 3.1 00:52:48 32° SW 00:53:45 44° WNW 00:56:40 10° N
STARLINK-1203 4.4 00:50:39 10° WNW 00:54:47 55° N 00:58:56 10° E
STARLINK-1233 3.6 00:50:50 10° WNW 00:55:00 89° NNE 00:59:10 10° ESE
Cosmos 990 Rocket 4.3 00:51:03 10° NNW 00:56:20 68° ENE 01:01:33 10° SSE
STARLINK-1143 4.4 00:53:02 10° WNW 00:57:07 55° N 01:01:13 10° E
ATLAS CENTAUR R/B 2.0 00:56:56 18° WSW 00:59:57 49° NW 01:03:57 10° NNE
STARLINK-1204 3.5 00:55:50 10° WNW 01:00:00 87° SSW 01:04:09 10° ESE
Timation 2 Rocket 4.4 00:54:19 10° NW 01:00:12 41° WSW 01:04:30 17° S
SL-16 R/B 2.6 00:56:01 16° S 01:00:57 59° WSW 01:07:04 10° NNW
STARLINK-1241 4.3 00:58:01 10° WNW 01:02:08 56° N 01:06:12 10° E
Alouette 2 Rocket 4.3 00:55:17 10° NNW 01:02:21 80° ENE 01:06:54 10° SSE
NOSS 3-4 (A) 4.2 00:57:31 11° WSW 01:03:12 49° NW 01:09:33 10° NE
NOSS 3-4 (C) 4.2 00:57:37 11° WSW 01:03:18 49° NW 01:09:39 10° NE
BREEZE-M R/B 3.1 01:01:08 22° SW 01:03:22 42° SSE 01:06:08 10° E
FALCON 9 DEB 3.7 01:02:08 27° SSW 01:03:31 42° SSE 01:06:49 10° ENE
Cosmos 1602 Rocket 3.5 01:01:58 22° SSW 01:04:41 72° WNW 01:09:01 10° N
Cosmos 1825 Rocket 4.3 01:01:14 13° SSE 01:04:55 47° E 01:09:05 10° NNE
STARLINK-1238 3.5 01:00:47 10° WNW 01:04:57 83° SSW 01:09:06 10° ESE
STARLINK-29 2.9 01:04:34 28° SW 01:06:03 64° SSE 01:09:13 10° ENE
Cosmos 1455 2.2 01:02:24 10° N 01:06:10 81° E 01:09:23 14° SSE
STARLINK-1239 4.3 01:03:01 10° WNW 01:07:07 57° N 01:11:12 10° E
ATLAS 3B R/B 3.4 01:01:43 10° NW 01:07:39 33° WSW 01:12:42 14° S
BREEZE-M DEB (TANK) 3.3 01:09:30 19° SSE 01:09:39 19° SSE 01:11:30 10° E
STARLINK-1201 3.5 01:05:47 10° WNW 01:09:57 79° SSW 01:14:05 10° ESE
IRS-1D 3.9 01:05:15 10° NNE 01:10:35 63° ESE 01:15:16 13° S
CENTAUR R/B 4.4 01:05:23 10° WNW 01:11:03 21° WSW 01:14:47 15° SW
STARLINK-1240 4.3 01:08:01 10° WNW 01:12:07 58° N 01:16:13 10° E
GP-B 3.2 01:07:46 10° N 01:12:14 79° E 01:16:11 13° S
Meteor 2-1 Rocket 4.3 01:08:03 10° NNW 01:13:27 57° W 01:18:04 14° S
BREEZE-M DEB (TANK) 0.9 01:12:38 19° WSW 01:14:16 80° SSE 01:16:40 10° E
STARLINK-1206 3.5 01:10:46 10° WNW 01:14:55 74° SSW 01:19:03 10° ESE
STARLINK-1365 4.4 01:13:46 20° S 01:15:23 28° SE 01:18:29 10° E
Cosmos-2242 3.1 01:11:30 10° N 01:15:47 75° E 01:20:01 10° SSE
STARLINK-1379 4.5 01:14:39 19° S 01:16:17 28° SE 01:19:21 10° E
STARLINK-1362 4.5 01:15:10 19° S 01:16:50 28° SE 01:19:55 10° E
STARLINK-1216 4.2 01:13:00 10° WNW 01:17:06 59° N 01:21:13 10° E
Cosmos 1745 Rocket 4.3 01:12:45 18° SW 01:17:17 52° WNW 01:23:17 10° N
Cosmos 1400 Rocket 4.4 01:14:09 10° N 01:18:01 37° ENE 01:21:51 10° SE
STARLINK-1373 4.4 01:17:22 19° S 01:19:06 29° SE 01:22:14 10° E
STARLINK-1205 3.5 01:15:45 10° WNW 01:19:53 70° SSW 01:24:01 10° SE
STARLINK-1390 4.4 01:19:27 19° S 01:21:16 30° SE 01:24:25 10° E
STARLINK-1237 4.2 01:17:59 10° WNW 01:22:07 61° NNE 01:26:13 10° E
RESURS DK-1 3.2 01:19:17 16° WSW 01:22:15 41° NW 01:26:13 10° NNE
Cosmos 2181 Rocket 4.1 01:15:54 10° N 01:22:21 90° WSW 01:28:49 10° S
SL-08 R/B 3.7 01:17:43 10° SSE 01:22:22 66° ENE 01:26:59 10° N
Cosmos 2227 Rocket 2.2 01:18:27 10° NNW 01:24:07 69° WSW 01:29:44 10° SSE
STARLINK-1218 3.5 01:20:43 10° WNW 01:24:50 66° SSW 01:28:57 10° SE
CZ-2D R/B 2.4 01:20:56 10° N 01:26:06 55° WNW 01:30:15 15° SW
STARLINK-1202 4.1 01:22:59 10° WNW 01:27:07 63° NNE 01:31:14 10° E
Cosmos 1763 Rocket 3.8 01:23:45 13° S 01:28:15 63° ESE 01:33:18 10° NNE
Cosmos 1697 Rocket 3.5 01:23:12 10° S 01:28:32 45° ESE 01:33:56 10° NE
ADEOS II 2.3 01:23:36 10° NNE 01:28:53 70° ESE 01:34:07 10° S
STARLINK-1254 3.6 01:25:43 10° WNW 01:29:49 62° SSW 01:33:55 10° SE
Cosmos 1703 3.3 01:26:47 13° S 01:30:14 79° E 01:34:13 10° NNE
ATLAS 2AS CENTAUR R/B 4.0 01:24:55 10° W 01:32:32 44° NNW 01:39:57 10° NE
STARLINK-1231 3.6 01:30:44 10° WNW 01:34:48 58° SSW 01:38:53 10° SE
Resurs 1-4 Rocket 2.7 01:30:46 10° N 01:35:48 46° WNW 01:40:11 13° SW
STARLINK-1228 4.5 01:33:47 10° W 01:36:12 19° SW 01:38:36 10° S
STARLINK-1246 4.0 01:32:56 10° WNW 01:37:05 67° NNE 01:41:13 10° E
STARLINK-1234 4.4 01:35:14 10° W 01:41:18 - SSE 01:37:03 17° SW
STARLINK-1212 4.1 01:36:23 10° W 01:38:51 22° SW 01:41:18 10° SSE
STARLINK-1105 4.1 01:36:51 10° W 01:39:18 21° SW 01:41:44 10° SSE
STARLINK-1232 3.7 01:35:43 10° WNW 01:39:46 55° SSW 01:43:49 10° SE
STARLINK-1247 4.1 01:37:46 10° W 01:40:14 21° SW 01:42:41 10° SSE
STARLINK-1227 4.1 01:38:15 10° W 01:40:40 21° SW 01:43:05 10° SSE
ARIANE 5 R/B 3.1 01:35:59 10° NNE 01:41:00 56° E 01:45:56 10° S
STARLINK-1226 4.1 01:39:06 10° W 01:41:32 21° SW 01:43:57 10° S
STARLINK-1224 4.0 01:37:55 10° WNW 01:42:05 69° NNE 01:46:13 10° E
STARLINK-1215 4.2 01:40:04 10° W 01:42:29 20° SW 01:44:52 10° S
STARLINK-52 2.9 01:39:41 13° WSW 01:42:29 84° NNW 01:45:43 10° ENE
Cosmos 1758 Rocket 3.7 01:39:23 14° SSW 01:43:04 61° WNW 01:47:25 10° N
NPP 4.2 01:38:04 10° N 01:43:14 47° WNW 01:47:57 12° SW
STARLINK-1217 4.2 01:41:51 10° W 01:44:14 20° SW 01:46:35 10° S
STARLINK-1208 3.7 01:40:41 10° WNW 01:44:43 51° SSW 01:48:44 10° SE
H-2A R/B 2.7 01:40:50 10° SSE 01:45:04 59° ENE 01:49:27 10° N
STARLINK-1229 4.2 01:42:47 10° W 01:45:09 20° SW 01:47:30 10° S
STARLINK-1270 4.2 01:43:40 10° W 01:46:01 19° SW 01:48:20 10° S
STARLINK-1225 3.9 01:42:55 10° WNW 01:47:05 72° NNE 01:51:13 10° ESE
STARLINK-1189 4.3 01:45:32 10° W 01:47:50 19° SW 01:50:06 10° S
STARLINK-1188 4.3 01:46:26 10° W 01:48:42 19° SW 01:50:58 10° S
Cosmos 1898 Rocket 3.8 01:43:58 10° NNW 01:49:08 50° WSW 01:54:14 10° S
STARLINK-1271 3.8 01:45:42 10° WNW 01:49:42 48° SSW 01:53:41 10° SE
STARLINK-1187 4.5 01:47:43 10° W 01:49:45 16° SW 01:51:46 10° S
STARLINK-1191 4.4 01:48:59 10° W 01:51:09 18° SW 01:53:18 10° S
Lacrosse 4 Rocket 1.6 01:46:54 10° NNW 01:51:17 79° NE 01:55:33 10° SE
STARLINK-1221 4.4 01:49:51 10° W 01:52:00 17° SW 01:54:09 10° S
Starlink 7 placeholder 3.5 01:50:14 10° WNW 01:52:03 30° N 01:53:53 10° ENE
STARLINK-1230 3.9 01:47:53 10° WNW 01:52:03 74° NNE 01:56:12 10° ESE
STARLINK-1222 4.4 01:50:47 10° W 01:52:54 17° SW 01:55:01 10° S
Cosmos 1656 3.8 01:48:20 12° SW 01:53:38 74° WNW 01:59:17 10° NNE
STARLINK-1214 4.4 01:51:42 10° W 01:53:47 17° SW 01:55:52 10° S
IDEFIX/ARIANE 42P 3.8 01:49:20 10° NNE 01:54:20 41° E 01:59:16 10° SSE
SJ 16-02 2.1 01:50:33 10° NW 01:54:32 33° WSW 01:58:29 10° SSW
STARLINK-1154 3.9 01:50:42 10° WNW 01:54:39 44° SW 01:58:36 10° SE
Cosmos 2285 Rocket 4.0 01:48:18 10° NNW 01:54:40 70° WSW 02:00:57 10° S
CZ-4C R/B 2.6 01:50:43 10° SSW 01:55:36 56° ESE 02:01:28 10° NE
Cosmos 2084 4.1 01:52:18 10° WSW 01:56:38 53° NW 02:01:02 10° NE
STARLINK-1243 3.8 01:52:52 10° WNW 01:57:02 77° NNE 02:01:11 10° ESE
Cosmos 468 Rocket 4.1 01:52:22 11° SSW 01:57:14 68° WNW 02:02:21 10° NNE
Cosmos 1570 Rocket 4.3 01:53:29 10° SSW 01:58:47 72° ESE 02:04:05 10° NNE
Cosmos 1953 Rocket 3.6 01:54:54 10° SSW 01:59:22 73° W 02:03:51 10° N
Cosmos 1937 Rocket 3.6 01:54:19 10° NNW 01:59:25 55° WSW 02:04:32 10° S
STARLINK-1197 4.0 01:55:42 10° WNW 01:59:37 41° SW 02:03:31 10° SE
Meteor 2-10 Rocket 4.4 01:56:24 10° NNW 02:01:04 31° W 02:05:35 10° SSW
Cosmos 2208 Rocket 4.4 01:56:31 10° S 02:01:40 64° ESE 02:06:56 10° NNE
Uosat 12 SS-18 rocket 4.1 01:57:20 10° NW 02:01:40 82° NE 02:06:08 10° SE
Cosmos 2369 3.9 01:56:16 10° SSW 02:01:53 75° ESE 02:07:32 10° NNE
COSMOS 2455 4.4 01:56:48 10° W 02:01:53 27° NNW 02:07:00 10° NNE
STARLINK-1236 3.8 01:57:51 10° WNW 02:02:02 81° NNE 02:06:11 10° ESE
NOSS 7 (H) 4.2 01:59:33 11° SW 02:02:33 70° SE 02:05:30 10° NE
STARLINK-1198 4.1 02:00:40 10° WNW 02:04:32 39° SW 02:08:24 10° SSE
Cosmos 1842 Rocket 4.0 02:00:53 10° N 02:05:24 69° ENE 02:09:51 10° SSE
STARLINK-1199 4.2 02:05:43 10° WNW 02:09:32 36° SW 02:13:20 10° SSE
Iridium 2 3.7 02:06:47 10° N 02:10:34 90° NW 02:14:19 10° S
STARLINK-1269 3.7 02:07:48 10° WNW 02:11:58 88° NNE 02:16:08 10° ESE
USA 129 3.7 02:10:56 10° NE 02:12:42 22° E 02:14:05 10° SSE
STARLINK-60 3.9 02:10:33 10° W 02:13:40 46° N 02:16:48 10° ENE
STARLINK-1210 4.3 02:10:42 10° WNW 02:14:27 34° SW 02:18:12 10° SSE
Cosmos 2219 4.5 02:12:21 10° NW 02:16:25 21° W 02:20:27 10° SSW
STARLINK-1200 3.6 02:12:48 10° WNW 02:16:58 88° SSW 02:21:08 10° ESE
Cosmos 1814 Rocket 4.2 02:12:17 10° SSW 02:17:38 77° ESE 02:22:59 10° NNE
STARLINK-1320 2.9 02:15:09 10° WSW 02:18:16 77° SSE 02:21:23 10° ENE
STARLINK-1322 2.9 02:15:30 10° WSW 02:18:36 77° SSE 02:21:44 10° ENE
Cosmos 1125 Rocket 4.4 02:13:42 10° NNW 02:18:49 54° ENE 02:23:54 10° SE
STARLINK-1324 2.9 02:15:51 10° WSW 02:18:58 78° SSE 02:22:05 10° ENE
STARLINK-1294 2.9 02:16:07 10° WSW 02:19:15 78° SSE 02:22:24 10° ENE
STARLINK-1219 4.3 02:15:43 10° WNW 02:19:25 31° SW 02:23:05 10° SSE
STARLINK-1261 2.9 02:16:30 10° WSW 02:19:37 78° SSE 02:22:45 10° ENE
Nadezhda 3 Rocket 4.2 02:13:31 10° N 02:19:50 86° E 02:26:09 10° S
STARLINK-1325 2.9 02:16:52 10° WSW 02:19:59 79° SSE 02:23:06 10° ENE
STARLINK-1333 2.9 02:17:10 10° WSW 02:20:18 79° SSE 02:23:25 10° ENE
STARLINK-1334 2.9 02:17:30 10° WSW 02:20:37 79° SSE 02:23:45 10° ENE
Cosmos 1980 Rocket 2.6 02:15:16 10° SSW 02:20:46 62° ESE 02:26:21 10° NE
STARLINK-1326 2.9 02:17:51 10° WSW 02:20:58 80° SSE 02:24:06 10° ENE
STARLINK-1323 2.9 02:18:12 10° WSW 02:21:19 80° SSE 02:24:26 10° ENE
STARLINK-1338 3.2 02:18:04 10° WSW 02:21:33 75° SSE 02:25:02 10° ENE
STARLINK-1349 2.9 02:18:31 10° WSW 02:21:38 81° SSE 02:24:46 10° ENE
STARLINK-1192 3.6 02:17:47 10° WNW 02:21:57 84° SSW 02:26:06 10° ESE
STARLINK-1336 2.9 02:18:54 10° WSW 02:22:00 81° SSE 02:25:08 10° ENE
STARLINK-1331 2.8 02:19:12 10° WSW 02:22:18 81° SSE 02:25:27 10° ENE
CZ-4B R/B 3.4 02:19:42 10° SE 02:22:26 30° ENE 02:25:11 10° N
STARLINK-1344 2.9 02:19:32 10° WSW 02:22:39 82° SSE 02:25:48 10° ENE
STARLINK-1343 2.9 02:19:53 10° WSW 02:23:00 82° SSE 02:26:07 10° ENE
STARLINK-1346 2.9 02:20:12 10° WSW 02:23:22 82° SSE 02:26:32 10° ENE
STARLINK-1328 2.9 02:20:35 10° WSW 02:23:41 83° SSE 02:26:49 10° ENE
STARLINK-1354 2.9 02:20:53 10° WSW 02:24:00 83° SSE 02:27:08 10° ENE
STARLINK-1211 4.4 02:20:44 10° W 02:24:20 29° SW 02:27:56 10° SSE
STARLINK-1347 2.9 02:21:15 10° WSW 02:24:22 83° SSE 02:27:30 10° ENE
STARLINK-1357 2.8 02:21:33 10° WSW 02:24:40 84° SSE 02:27:48 10° ENE
ERS-2 2.7 02:21:26 10° SSW 02:24:51 37° W 02:28:19 10° NNW
STARLINK-1335 2.8 02:21:54 10° WSW 02:25:01 84° SSE 02:28:10 10° ENE
STARLINK-1371 3.2 02:22:05 10° WSW 02:25:35 79° SSE 02:29:05 10° ENE
